QPF
0.01 0.01 0.00 0.00 0.00 0.00 0.00 0.00 0.00 0.00 0.01 0.01 0.01 0.01 0.00 0.00 0.01 0.01 0.01 0.01 0.01 0.02 0.02 0.02 0.02 0.02 0.03 0.02 0.01 0.01 0.02 0.01 0.01 0.01 0.00 0.00 0.00 0.00 0.00 0.00 0.00 0.00 0.00
0.00 0.00 0.00 0.00 0.00 0.00 0.00 0.00 0.00 0.00 0.00 0.00 0.01 0.01 0.00 0.00 0.00 0.00 0.00 0.00 0.01 0.03 0.03 0.03 0.02 0.01 0.01 0.01 0.01 0.01 0.01 0.01 0.01 0.01 0.01 0.00 0.00 0.01 0.01 0.00 0.00 0.00 0.00
0.00 0.00 0.00 0.00 0.00 0.00 0.00 0.00 0.00 0.00 0.00 0.00 0.00 0.00 0.00 0.00 0.00 0.00 0.01 0.01 0.01 0.02 0.02 0.03 0.03 0.02 0.01 0.01 0.01 0.01 0.01 0.01 0.01 0.01 0.01 0.01 0.00 0.01 0.01 0.00 0.00 0.00 0.01
0.00 0.00 0.00 0.00 0.00 0.00 0.00 0.00 0.00 0.00 0.00 0.00 0.00 0.00 0.00 0.00 0.00 0.00 0.00 0.01 0.02 0.01 0.01 0.02 0.03 0.02 0.02 0.02 0.01 0.01 0.01 0.01 0.01 0.02 0.02 0.01 0.01 0.01 0.01 0.01 0.01 0.01 0.01
0.00 0.00 0.00 0.00 0.01 0.00 0.00 0.00 0.00 0.00 0.00 0.00 0.00 0.00 0.00 0.00 0.01 0.01 0.00 0.01 0.01 0.01 0.01 0.01 0.01 0.01 0.01 0.01 0.01 0.01 0.01 0.01 0.02 0.02 0.01 0.01 0.01 0.01 0.00 0.00 0.01 0.01 0.00
0.00 0.01 0.01 0.00 0.01 0.01 0.01 0.01 0.01 0.01 0.00 0.00 0.00 0.00 0.00 0.00 0.00 0.01 0.00 0.00 0.01 0.01 0.01 0.00 0.00 0.00 0.01 0.01 0.00 0.01 0.01 0.01 0.01 0.01 0.01 0.01 0.01 0.01 0.00 0.00 0.00 0.00 0.00
0.00 0.00 0.00 0.00 0.00 0.01 0.01 0.01 0.01 0.01 0.01 0.00 0.00 0.00 0.00 0.00 0.00 0.00 0.00 0.01 0.01 0.01 0.01 0.01 0.00 0.00 0.01 0.01 0.01 0.01 0.01 0.00 0.01 0.01 0.01 0.01 0.01 0.01 0.01 0.00 0.00 0.00 0.00
0.00 0.01 0.01 0.01 0.00 0.00 0.01 0.01 0.00 0.01 0.01 0.01 0.01 0.01 0.00 0.01 0.00 0.00 0.00 0.01 0.01 0.01 0.01 0.01 0.01 0.00 0.00 0.01 0.01 0.01 0.01 0.01 0.01 0.01 0.00 0.00 0.01 0.01 0.01 0.01 0.00 0.00 0.00
0.00 0.01 0.01 0.00 0.00 0.00 0.00 0.00 0.01 0.01 0.00 0.01 0.01 0.00 0.00 0.01 0.00 0.00 0.00 0.01 0.00 0.00 0.01 0.01 0.01 0.00 0.01 0.01 0.01 0.01 0.02 0.01 0.01 0.01 0.01 0.00 0.01 0.01 0.01 0.01 0.01 0.01 0.00
0.00 0.00 0.00 0.00 0.00 0.00 0.00 0.00 0.01 0.01 0.01 0.00 0.01 0.00 0.00 0.00 0.01 0.00 0.00 0.01 0.01 0.01 0.01 0.01 0.01 0.01 0.01 0.00 0.01 0.02 0.02 0.01 0.01 0.01 0.01 0.01 0.00 0.01 0.01 0.01 0.01 0.01 0.01
0.00 0.00 0.00 0.00 0.00 0.00 0.00 0.00 0.00 0.01 0.01 0.01 0.00 0.00 0.00 0.01 0.01 0.01 0.01 0.01 0.01 0.01 0.01 0.01 0.01 0.01 0.00 0.00 0.00 0.01 0.01 0.01 0.01 0.01 0.01 0.01 0.01 0.01 0.01 0.01 0.01 0.01 0.01
0.00 0.00 0.00 0.00 0.00 0.00 0.00 0.00 0.01 0.00 0.00 0.01 0.01 0.01 0.01 0.01 0.01 0.01 0.02 0.02 0.02 0.02 0.01 0.01 0.01 0.01 0.00 0.00 0.00 0.00 0.00 0.00 0.00 0.01 0.01 0.01 0.01 0.01 0.01 0.01 0.01 0.01 0.01
0.00 0.00 0.00 0.00 0.00 0.00 0.00 0.00 0.00 0.00 0.01 0.01 0.01 0.01 0.01 0.01 0.01 0.01 0.01 0.01 0.01 0.02 0.01 0.01 0.01 0.01 0.01 0.00 0.00 0.00 0.00 0.00 0.00 0.00 0.01 0.01 0.01 0.02 0.02 0.02 0.01 0.01 0.01
0.00 0.00 0.01 0.01 0.01 0.00 0.00 0.00 0.00 0.00 0.01 0.02 0.02 0.02 0.01 0.01 0.01 0.01 0.01 0.01 0.01 0.01 0.01 0.01 0.01 0.01 0.01 0.00 0.00 0.00 0.01 0.01 0.01 0.00 0.01 0.01 0.02 0.02 0.02 0.02 0.02 0.01 0.01
0.01 0.01 0.01 0.02 0.01 0.01 0.00 0.00 0.00 0.01 0.01 0.02 0.02 0.02 0.02 0.02 0.01 0.01 0.01 0.02 0.02 0.02 0.02 0.02 0.01 0.01 0.01 0.01 0.01 0.01 0.01 0.01 0.01 0.00 0.01 0.01 0.01 0.01 0.01 0.01 0.01 0.01 0.01
0.02 0.02 0.01 0.01 0.01 0.01 0.01 0.01 0.01 0.01 0.02 0.03 0.03 0.03 0.03 0.02 0.02 0.02 0.02 0.02 0.02 0.02 0.02 0.02 0.02 0.02 0.02 0.02 0.01 0.01 0.01 0.01 0.01 0.01 0.01 0.01 0.01 0.01 0.01 0.01 0.01 0.01 0.01
0.02 0.02 0.01 0.01 0.01 0.01 0.01 0.01 0.01 0.02 0.02 0.02 0.03 0.03 0.02 0.02 0.02 0.02 0.02 0.01 0.02 0.02 0.02 0.02 0.02 0.02 0.02 0.02 0.02 0.02 0.02 0.02 0.02 0.02 0.02 0.02 0.02 0.02 0.02 0.01 0.01 0.01 0.01
0.01 0.02 0.02 0.02 0.01 0.01 0.01 0.02 0.02 0.03 0.03 0.03 0.03 0.03 0.03 0.03 0.03 0.02 0.01 0.01 0.01 0.01 0.01 0.02 0.03 0.04 0.04 0.03 0.02 0.02 0.02 0.02 0.02 0.01 0.01 0.02 0.02 0.02 0.03 0.02 0.02 0.02 0.01
0.01 0.02 0.02 0.02 0.01 0.01 0.02 0.03 0.03 0.04 0.04 0.04 0.04 0.03 0.03 0.03 0.03 0.03 0.02 0.02 0.02 0.02 0.03 0.05 0.07 0.07 0.06 0.05 0.04 0.03 0.02 0.01 0.01 0.01 0.01 0.01 0.01 0.01 0.01 0.01 0.01 0.02 0.02
0.00 0.01 0.02 0.02 0.01 0.01 0.02 0.03 0.03 0.03 0.04 0.05 0.04 0.04 0.04 0.04 0.04 0.05 0.06 0.05 0.05 0.05 0.06 0.07 0.06 0.05 0.04 0.03 0.04 0.04 0.04 0.03 0.02 0.02 0.02 0.02 0.02 0.02 0.02 0.01 0.01 0.01 0.02
0.00 0.01 0.02 0.02 0.02 0.03 0.03 0.04 0.03 0.03 0.03 0.03 0.03 0.04 0.04 0.04 0.05 0.05 0.05 0.04 0.05 0.05 0.05 0.04 0.03 0.02 0.02 0.02 0.02 0.03 0.03 0.04 0.03 0.03 0.03 0.03 0.02 0.03 0.03 0.02 0.02 0.02 0.02
0.01 0.01 0.02 0.02 0.03 0.04 0.05 0.04 0.04 0.03 0.03 0.03 0.03 0.03 0.03 0.03 0.04 0.04 0.04 0.04 0.05 0.05 0.04 0.03 0.02 0.01 0.01 0.02 0.02 0.02 0.02 0.02 0.02 0.03 0.03 0.03 0.03 0.03 0.03 0.03 0.03 0.02 0.02
0.01 0.01 0.02 0.02 0.03 0.05 0.04 0.04 0.04 0.03 0.03 0.03 0.03 0.03 0.03 0.04 0.05 0.04 0.04 0.04 0.04 0.04 0.04 0.03 0.02 0.01 0.01 0.01 0.01 0.01 0.02 0.02 0.03 0.04 0.04 0.04 0.05 0.05 0.04 0.04 0.03 0.02 0.02
0.01 0.01 0.02 0.03 0.04 0.03 0.03 0.03 0.04 0.04 0.04 0.04 0.03 0.03 0.04 0.05 0.06 0.05 0.04 0.03 0.02 0.02 0.02 0.02 0.02 0.02 0.02 0.02 0.02 0.01 0.02 0.02 0.02 0.03 0.03 0.03 0.04 0.05 0.05 0.05 0.04 0.03 0.03
0.02 0.02 0.03 0.04 0.04 0.04 0.03 0.03 0.04 0.05 0.06 0.05 0.05 0.05 0.06 0.06 0.05 0.05 0.03 0.03 0.02 0.02 0.02 0.02 0.02 0.02 0.03 0.03 0.02 0.02 0.03 0.03 0.03 0.02 0.02 0.03 0.04 0.04 0.05 0.06 0.06 0.05 0.04
0.03 0.04 0.04 0.03 0.04 0.04 0.03 0.03 0.03 0.04 0.04 0.05 0.05 0.05 0.06 0.07 0.05 0.05 0.04 0.04 0.03 0.03 0.03 0.03 0.03 0.02 0.02 0.02 0.02 0.02 0.02 0.02 0.03 0.03 0.03 0.03 0.04 0.05 0.06 0.06 0.07 0.07 0.08
MSLP
1014.13 1014.38 1014.60 1014.76 1014.86 1014.88 1014.85 1014.79 1014.74 1014.74 1014.78 1014.89 1015.05 1015.25 1015.46 1015.66 1015.85 1016.02 1016.18 1016.34 1016.53 1016.76 1017.03 1017.34 1017.69 1018.07 1018.45 1018.84 1019.23 1019.62 1020.03 1020.45 1020.89 1021.34 1021.80 1022.22 1022.60 1022.91 1023.13 1023.27 1023.32 1023.32 1023.28
1013.97 1014.24 1014.49 1014.67 1014.78 1014.81 1014.79 1014.73 1014.68 1014.65 1014.67 1014.74 1014.86 1015.02 1015.21 1015.39 1015.57 1015.74 1015.91 1016.08 1016.28 1016.52 1016.79 1017.10 1017.44 1017.80 1018.17 1018.54 1018.91 1019.29 1019.69 1020.11 1020.56 1021.03 1021.51 1021.98 1022.41 1022.78 1023.06 1023.26 1023.37 1023.41 1023.41
1013.80 1014.09 1014.35 1014.56 1014.69 1014.74 1014.73 1014.69 1014.63 1014.60 1014.60 1014.66 1014.76 1014.89 1015.05 1015.22 1015.38 1015.55 1015.71 1015.88 1016.08 1016.31 1016.57 1016.87 1017.20 1017.55 1017.91 1018.28 1018.65 1019.03 1019.43 1019.86 1020.32 1020.80 1021.29 1021.77 1022.22 1022.61 1022.93 1023.16 1023.30 1023.38 1023.40
1013.60 1013.90 1014.17 1014.39 1014.54 1014.62 1014.64 1014.62 1014.58 1014.56 1014.57 1014.62 1014.71 1014.83 1014.98 1015.12 1015.27 1015.42 1015.56 1015.72 1015.90 1016.11 1016.36 1016.64 1016.96 1017.30 1017.67 1018.04 1018.42 1018.82 1019.23 1019.67 1020.13 1020.60 1021.08 1021.55 1021.99 1022.37 1022.69 1022.92 1023.08 1023.18 1023.22
1013.35 1013.64 1013.91 1014.14 1014.31 1014.42 1014.48 1014.50 1014.50 1014.51 1014.54 1014.61 1014.70 1014.82 1014.94 1015.08 1015.20 1015.32 1015.44 1015.57 1015.72 1015.90 1016.13 1016.39 1016.70 1017.04 1017.41 1017.80 1018.20 1018.61 1019.03 1019.47 1019.91 1020.36 1020.81 1021.24 1021.63 1021.98 1022.27 1022.49 1022.66 1022.77 1022.84
1013.04 1013.30 1013.56 1013.80 1013.99 1014.14 1014.24 1014.31 1014.36 1014.42 1014.48 1014.57 1014.68 1014.79 1014.92 1015.03 1015.13 1015.22 1015.31 1015.41 1015.53 1015.68 1015.87 1016.12 1016.41 1016.75 1017.12 1017.52 1017.93 1018.35 1018.78 1019.20 1019.62 1020.02 1020.41 1020.78 1021.12 1021.41 1021.66 1021.86 1022.03 1022.16 1022.26
1012.69 1012.90 1013.14 1013.38 1013.59 1013.77 1013.92 1014.04 1014.15 1014.25 1014.36 1014.48 1014.60 1014.73 1014.84 1014.95 1015.03 1015.10 1015.16 1015.22 1015.31 1015.44 1015.61 1015.83 1016.11 1016.44 1016.81 1017.21 1017.62 1018.03 1018.43 1018.82 1019.20 1019.55 1019.87 1020.17 1020.44 1020.67 1020.88 1021.07 1021.24 1021.40 1021.55
1012.31 1012.48 1012.69 1012.92 1013.14 1013.34 1013.53 1013.69 1013.85 1013.99 1014.14 1014.29 1014.43 1014.57 1014.69 1014.79 1014.86 1014.92 1014.97 1015.02 1015.09 1015.19 1015.35 1015.56 1015.82 1016.14 1016.49 1016.87 1017.26 1017.65 1018.02 1018.36 1018.68 1018.96 1019.21 1019.44 1019.65 1019.84 1020.02 1020.20 1020.38 1020.58 1020.79
1011.97 1012.09 1012.26 1012.46 1012.67 1012.88 1013.08 1013.28 1013.46 1013.64 1013.82 1013.98 1014.15 1014.29 1014.42 1014.53 1014.61 1014.67 1014.72 1014.78 1014.86 1014.96 1015.12 1015.32 1015.57 1015.87 1016.20 1016.56 1016.91 1017.25 1017.57 1017.86 1018.12 1018.34 1018.53 1018.70 1018.86 1019.02 1019.19 1019.38 1019.59 1019.82 1020.08
1011.68 1011.74 1011.86 1012.02 1012.21 1012.41 1012.60 1012.80 1012.99 1013.18 1013.36 1013.54 1013.72 1013.87 1014.02 1014.14 1014.25 1014.34 1014.42 1014.51 1014.61 1014.74 1014.91 1015.12 1015.38 1015.66 1015.97 1016.29 1016.60 1016.90 1017.17 1017.40 1017.60 1017.77 1017.92 1018.05 1018.19 1018.34 1018.51 1018.71 1018.94 1019.21 1019.51
1011.46 1011.46 1011.52 1011.62 1011.76 1011.92 1012.08 1012.25 1012.43 1012.60 1012.78 1012.96 1013.13 1013.30 1013.46 1013.62 1013.76 1013.90 1014.04 1014.18 1014.34 1014.52 1014.72 1014.96 1015.22 1015.50 1015.79 1016.08 1016.36 1016.61 1016.83 1017.02 1017.18 1017.32 1017.44 1017.56 1017.69 1017.85 1018.03 1018.26 1018.51 1018.80 1019.11
1011.28 1011.21 1011.20 1011.24 1011.31 1011.40 1011.51 1011.63 1011.77 1011.91 1012.06 1012.23 1012.40 1012.58 1012.77 1012.96 1013.15 1013.35 1013.56 1013.77 1014.00 1014.25 1014.51 1014.78 1015.07 1015.36 1015.64 1015.91 1016.16 1016.38 1016.58 1016.74 1016.88 1017.00 1017.12 1017.24 1017.39 1017.56 1017.76 1018.00 1018.27 1018.56 1018.86
1011.09 1010.96 1010.87 1010.83 1010.82 1010.83 1010.87 1010.93 1011.01 1011.11 1011.23 1011.37 1011.54 1011.72 1011.94 1012.17 1012.42 1012.69 1012.97 1013.26 1013.57 1013.89 1014.21 1014.53 1014.85 1015.15 1015.45 1015.71 1015.95 1016.16 1016.34 1016.50 1016.63 1016.76 1016.89 1017.04 1017.20 1017.39 1017.61 1017.86 1018.12 1018.39 1018.66
1010.83 1010.62 1010.47 1010.35 1010.26 1010.20 1010.16 1010.15 1010.17 1010.22 1010.30 1010.42 1010.58 1010.78 1011.01 1011.28 1011.59 1011.92 1012.27 1012.63 1013.01 1013.39 1013.77 1014.14 1014.49 1014.82 1015.13 1015.40 1015.64 1015.86 1016.04 1016.20 1016.35 1016.50 1016.65 1016.82 1017.01 1017.22 1017.45 1017.69 1017.94 1018.18 1018.41
1010.43 1010.18 1009.96 1009.77 1009.61 1009.48 1009.38 1009.31 1009.27 1009.28 1009.33 1009.43 1009.58 1009.78 1010.04 1010.34 1010.68 1011.06 1011.46 1011.88 1012.31 1012.73 1013.15 1013.55 1013.93 1014.28 1014.60 1014.89 1015.14 1015.37 1015.57 1015.75 1015.93 1016.10 1016.28 1016.47 1016.67 1016.89 1017.12 1017.36 1017.59 1017.80 1017.99
1009.89 1009.60 1009.34 1009.10 1008.89 1008.71 1008.56 1008.44 1008.37 1008.34 1008.37 1008.45 1008.60 1008.80 1009.07 1009.39 1009.75 1010.15 1010.58 1011.02 1011.46 1011.90 1012.34 1012.75 1013.13 1013.49 1013.82 1014.11 1014.38 1014.63 1014.85 1015.05 1015.25 1015.45 1015.65 1015.85 1016.06 1016.29 1016.51 1016.74 1016.95 1017.15 1017.32
1009.22 1008.91 1008.63 1008.37 1008.13 1007.92 1007.74 1007.59 1007.49 1007.44 1007.45 1007.52 1007.66 1007.87 1008.13 1008.45 1008.82 1009.22 1009.64 1010.07 1010.50 1010.93 1011.35 1011.74 1012.11 1012.46 1012.78 1013.08 1013.35 1013.61 1013.85 1014.08 1014.29 1014.51 1014.72 1014.93 1015.15 1015.37 1015.59 1015.81 1016.02 1016.22 1016.39
1008.48 1008.18 1007.90 1007.63 1007.38 1007.16 1006.96 1006.79 1006.67 1006.61 1006.60 1006.66 1006.79 1006.98 1007.24 1007.55 1007.90 1008.27 1008.66 1009.06 1009.46 1009.85 1010.22 1010.58 1010.91 1011.23 1011.54 1011.82 1012.10 1012.36 1012.61 1012.85 1013.09 1013.31 1013.54 1013.76 1013.98 1014.19 1014.42 1014.64 1014.86 1015.07 1015.28
1007.74 1007.47 1007.20 1006.94 1006.69 1006.45 1006.24 1006.06 1005.92 1005.83 1005.80 1005.85 1005.96 1006.14 1006.37 1006.66 1006.98 1007.32 1007.67 1008.02 1008.36 1008.70 1009.01 1009.31 1009.60 1009.88 1010.16 1010.43 1010.69 1010.96 1011.22 1011.47 1011.72 1011.96 1012.19 1012.42 1012.64 1012.86 1013.09 1013.32 1013.57 1013.82 1014.09
1007.09 1006.84 1006.59 1006.34 1006.08 1005.82 1005.58 1005.37 1005.20 1005.08 1005.02 1005.04 1005.12 1005.28 1005.49 1005.74 1006.03 1006.34 1006.65 1006.95 1007.24 1007.51 1007.77 1008.01 1008.25 1008.49 1008.73 1008.99 1009.24 1009.51 1009.78 1010.05 1010.31 1010.56 1010.81 1011.05 1011.28 1011.52 1011.76 1012.02 1012.30 1012.60 1012.94
1006.57 1006.33 1006.09 1005.82 1005.54 1005.25 1004.97 1004.70 1004.48 1004.31 1004.21 1004.18 1004.23 1004.36 1004.54 1004.77 1005.03 1005.31 1005.58 1005.85 1006.09 1006.32 1006.53 1006.73 1006.93 1007.14 1007.35 1007.59 1007.85 1008.12 1008.40 1008.69 1008.97 1009.25 1009.52 1009.78 1010.03 1010.29 1010.56 1010.85 1011.17 1011.52 1011.92
1006.18 1005.95 1005.68 1005.38 1005.05 1004.70 1004.35 1004.02 1003.72 1003.48 1003.32 1003.24 1003.25 1003.34 1003.50 1003.72 1003.96 1004.23 1004.49 1004.73 1004.96 1005.16 1005.34 1005.52 1005.69 1005.88 1006.08 1006.32 1006.58 1006.86 1007.16 1007.47 1007.78 1008.10 1008.40 1008.69 1008.98 1009.26 1009.56 1009.88 1010.24 1010.64 1011.09
1005.91 1005.65 1005.34 1004.99 1004.59 1004.16 1003.71 1003.29 1002.90 1002.58 1002.35 1002.22 1002.18 1002.25 1002.40 1002.60 1002.85 1003.12 1003.39 1003.64 1003.87 1004.07 1004.25 1004.42 1004.58 1004.76 1004.97 1005.20 1005.47 1005.77 1006.10 1006.44 1006.79 1007.14 1007.48 1007.81 1008.13 1008.45 1008.78 1009.13 1009.52 1009.95 1010.43
1005.70 1005.40 1005.04 1004.61 1004.12 1003.59 1003.06 1002.53 1002.06 1001.66 1001.36 1001.18 1001.11 1001.15 1001.29 1001.51 1001.77 1002.06 1002.35 1002.63 1002.88 1003.09 1003.29 1003.46 1003.64 1003.82 1004.03 1004.27 1004.55 1004.87 1005.22 1005.58 1005.97 1006.35 1006.72 1007.09 1007.45 1007.80 1008.16 1008.54 1008.95 1009.39 1009.90
1005.51 1005.16 1004.73 1004.22 1003.66 1003.04 1002.42 1001.81 1001.26 1000.80 1000.45 1000.22 1000.13 1000.17 1000.31 1000.55 1000.84 1001.15 1001.48 1001.78 1002.06 1002.30 1002.51 1002.70 1002.88 1003.07 1003.28 1003.53 1003.81 1004.14 1004.49 1004.88 1005.28 1005.69 1006.09 1006.48 1006.87 1007.25 1007.63 1008.02 1008.45 1008.90 1009.41
1005.32 1004.92 1004.43 1003.86 1003.23 1002.55 1001.87 1001.21 1000.61 1000.11 999.73 999.49 999.39 999.43 999.59 999.84 1000.16 1000.51 1000.86 1001.20 1001.50 1001.76 1001.98 1002.18 1002.36 1002.55 1002.75 1002.98 1003.25 1003.57 1003.92 1004.30 1004.70 1005.11 1005.52 1005.93 1006.33 1006.72 1007.12 1007.52 1007.95 1008.41 1008.92
Thickness
5717 5715 5713 5711 5710 5708 5706 5705 5704 5703 5702 5700 5699 5698 5696 5695 5694 5692 5691 5690 5689 5688 5687 5686 5684 5684 5682 5681 5680 5679 5677 5673 5665 5664 5665 5665 5663 5661 5660 5659 5657 5656 5654
5716 5713 5711 5710 5708 5706 5704 5703 5702 5701 5700 5699 5698 5696 5695 5694 5693 5691 5689 5688 5686 5684 5684 5683 5682 5682 5680 5679 5677 5675 5673 5672 5667 5660 5660 5660 5660 5659 5657 5656 5655 5653 5651
5713 5711 5708 5706 5704 5703 5701 5700 5700 5699 5698 5697 5695 5693 5692 5691 5690 5689 5688 5686 5684 5683 5682 5680 5679 5679 5677 5676 5674 5672 5671 5670 5666 5661 5658 5657 5656 5656 5654 5653 5652 5650 5649
5711 5707 5704 5703 5701 5700 5699 5698 5697 5696 5695 5693 5692 5691 5690 5689 5688 5687 5686 5684 5682 5681 5680 5679 5678 5676 5674 5673 5671 5670 5668 5665 5663 5659 5655 5653 5652 5652 5650 5647 5645 5645 5644
5708 5704 5702 5701 5699 5697 5696 5694 5693 5692 5692 5690 5689 5688 5687 5685 5684 5683 5682 5681 5680 5678 5677 5676 5675 5674 5673 5671 5669 5666 5665 5661 5658 5655 5652 5650 5648 5646 5644 5644 5641 5640 5639
5706 5703 5700 5698 5696 5693 5692 5690 5689 5687 5686 5685 5684 5683 5682 5681 5680 5679 5678 5677 5676 5675 5674 5673 5672 5671 5670 5668 5666 5664 5662 5659 5655 5652 5649 5646 5645 5644 5642 5641 5638 5635 5631
5704 5701 5698 5694 5692 5690 5688 5686 5683 5682 5681 5680 5679 5678 5676 5676 5676 5675 5674 5672 5672 5671 5671 5670 5670 5669 5666 5664 5662 5660 5658 5656 5654 5650 5646 5644 5642 5642 5640 5637 5635 5632 5628
5700 5697 5694 5691 5687 5686 5683 5681 5679 5678 5677 5675 5675 5674 5672 5672 5671 5671 5670 5668 5667 5667 5667 5667 5666 5664 5664 5661 5659 5655 5653 5652 5651 5648 5646 5644 5643 5641 5639 5636 5633 5630 5627
5697 5694 5691 5688 5684 5681 5679 5677 5676 5674 5673 5672 5671 5670 5668 5667 5667 5666 5665 5663 5662 5663 5663 5663 5663 5661 5661 5659 5656 5652 5649 5648 5647 5646 5644 5642 5639 5637 5634 5631 5627 5623 5619
5693 5690 5688 5685 5681 5678 5676 5675 5673 5671 5669 5668 5667 5666 5665 5663 5663 5662 5660 5659 5657 5657 5657 5658 5658 5657 5656 5654 5651 5648 5645 5645 5644 5642 5639 5637 5634 5632 5629 5626 5622 5617 5613
5690 5688 5684 5681 5679 5676 5674 5672 5670 5667 5665 5663 5662 5661 5661 5660 5659 5658 5656 5654 5653 5652 5651 5651 5651 5651 5650 5648 5646 5644 5643 5642 5640 5637 5634 5631 5629 5627 5624 5622 5619 5614 5609
5685 5682 5679 5677 5675 5673 5669 5668 5666 5663 5659 5657 5656 5655 5655 5656 5655 5653 5652 5650 5649 5647 5646 5645 5645 5645 5643 5642 5640 5640 5639 5637 5634 5631 5628 5625 5623 5621 5620 5618 5615 5612 5609
5678 5675 5674 5672 5670 5668 5665 5662 5660 5657 5654 5652 5650 5649 5648 5649 5649 5648 5646 5645 5643 5641 5641 5640 5639 5638 5637 5635 5634 5633 5632 5630 5627 5624 5622 5620 5619 5618 5615 5613 5610 5607 5604
5670 5668 5667 5665 5663 5662 5660 5658 5655 5653 5650 5649 5647 5645 5644 5644 5643 5642 5640 5638 5636 5635 5634 5633 5632 5631 5629 5628 5627 5626 5625 5623 5622 5619 5618 5616 5615 5612 5609 5606 5602 5599 5595
5662 5661 5660 5658 5656 5654 5652 5651 5650 5650 5649 5647 5645 5644 5641 5640 5641 5640 5637 5635 5632 5630 5628 5626 5624 5622 5621 5620 5619 5619 5618 5616 5615 5614 5612 5610 5608 5605 5602 5600 5596 5592 5588
5654 5653 5652 5650 5648 5646 5644 5643 5643 5644 5644 5644 5643 5641 5641 5640 5639 5636 5634 5632 5629 5627 5624 5621 5619 5618 5616 5614 5613 5612 5611 5611 5609 5608 5606 5604 5601 5599 5596 5593 5590 5586 5582
5646 5646 5644 5642 5640 5639 5638 5636 5634 5634 5635 5636 5636 5636 5635 5634 5633 5630 5627 5624 5622 5620 5617 5615 5614 5612 5611 5610 5608 5607 5606 5606 5604 5602 5600 5598 5596 5593 5590 5587 5584 5580 5577
5639 5639 5637 5634 5633 5632 5631 5630 5629 5628 5626 5625 5626 5627 5627 5626 5625 5623 5620 5616 5612 5611 5610 5608 5607 5606 5605 5604 5603 5602 5601 5600 5598 5596 5594 5592 5590 5587 5583 5580 5577 5573 5570
5633 5632 5630 5628 5627 5626 5625 5623 5622 5622 5620 5619 5618 5618 5618 5617 5616 5614 5612 5609 5607 5604 5603 5602 5600 5599 5599 5598 5597 5596 5595 5594 5592 5590 5588 5585 5582 5579 5576 5574 5570 5567 5563
5626 5626 5624 5622 5621 5620 5618 5617 5616 5616 5615 5614 5613 5612 5610 5608 5606 5604 5603 5602 5601 5599 5597 5595 5594 5593 5592 5592 5591 5590 5588 5587 5585 5583 5580 5578 5575 5573 5570 5566 5563 5559 5556
5619 5619 5619 5617 5615 5614 5614 5613 5612 5611 5611 5610 5609 5608 5606 5604 5602 5599 5597 5596 5595 5593 5592 5590 5588 5587 5586 5585 5584 5583 5581 5579 5577 5575 5573 5571 5568 5566 5563 5560 5556 5553 5549
5613 5613 5613 5612 5611 5610 5609 5609 5608 5607 5607 5606 5604 5602 5600 5598 5596 5594 5592 5591 5590 5588 5586 5584 5582 5580 5579 5578 5577 5575 5573 5571 5569 5567 5565 5563 5561 5558 5555 5552 5549 5545 5542
5607 5607 5607 5607 5606 5605 5604 5604 5604 5603 5602 5601 5599 5596 5593 5591 5590 5588 5587 5585 5584 5582 5580 5578 5575 5574 5572 5571 5570 5568 5566 5564 5562 5560 5558 5555 5553 5550 5548 5545 5541 5537 5533
5602 5602 5602 5601 5601 5600 5600 5600 5599 5598 5597 5596 5594 5591 5588 5586 5584 5582 5580 5579 5577 5575 5573 5571 5569 5567 5565 5563 5562 5560 5559 5557 5555 5553 5550 5547 5545 5543 5540 5537 5533 5529 5525
5597 5597 5597 5597 5597 5596 5596 5595 5594 5593 5592 5590 5588 5585 5582 5579 5577 5575 5573 5571 5569 5566 5564 5563 5561 5559 5557 5555 5553 5552 5550 5548 5547 5545 5542 5540 5537 5534 5531 5528 5524 5520 5516
5592 5593 5592 5592 5591 5591 5590 5590 5589 5588 5586 5584 5582 5579 5576 5573 5570 5567 5565 5562 5561 5559 5557 5555 5553 5551 5548 5546 5545 5543 5542 5540 5538 5536 5534 5531 5528 5525 5521 5518 5514 5510 5506